sat.trackr.live / text

‹ back to catalog

STARLINK-36133

NORAD 66963 · 2025-288E

PAYLOAD ACTIVE UNKNOWN

§ Identity

Operator
Country
US
Launch date
2025-12-08
Launch site
AFETR
Launch vehicle
Mass (kg)
RCS (m²)

Purposes: comms

External: N2YO · Heavens-Above · Gunter

§ Orbital elements

Epoch: 2026-09-20T17:16:32.601792Z

Period
94.27 min
Inclination
43.0023°
Eccentricity
0.0001237
Mean motion
15.27592829 rev/d
Perigee alt
482.2 km
Apogee alt
483.9 km
Semi-major
6,861.1 km
B*
3.6756e-4
RAAN
2.1200°
Arg perigee
276.0880°
Mean anomaly
83.9831°
Rev number
4,511

§ Raw data

STARLINK-361331 66963U 25288E   26263.71982178  .00009870  00000+0  36756-3 0  99902 66963  43.0023   2.1200 0001237 276.0880  83.9831 15.27592829 45116

JSON: /api/v1/satellites/66963 · /tle

For live sub-satellite position, see the globe view (requires WebGL).

§ Visibility from observer

Set your observer location to see the next 7 days of passes ≥ 10°. The values pass through the URL so the page stays shareable.

No JS? Fill the form by hand. The geolocation button needs JavaScript.